www.pogodaiklimat.ru

Погода и климат >> Архив погоды >> Россия >> Якутия >> Себян-Кюель


ПОГОДА в Себян-Кюеле

  • Прогноз погоды в Себян-Кюеле
  • Монитор погоды в Себян-Кюеле

АРХИВ ПОГОДЫ в Себян-Кюеле

Время (UTC), дата Ветер
(напр.,м/с)
 
Видим.   Явления Облачность Т
(С)
Тd
(С)
f
(%)
Тe
(С)
Тes
(С)
Комфортность P
(гПа)
Po
(гПа)
Тmin
(С)
Tmax
(С)
R
(мм)
R24
(мм)
S
(см)
09 14.04 штиль 0 50 км 10/0
[Ac und]
-9.5 -16.5 57 -10 -9 1007.6 911.9
12 14.04 штиль 0 50 км 10/0 2000 м
[Ac und]
-18.2 -20.8 80 -18 -18 1012.0 912.7 -9.3
15 14.04 З 2 50 км 3/0 2000 м
[Ac trans]
-22.2 -24.1 84 -28 -28 1013.3 912.4
18 14.04 З 1 50 км 3/0
[Ci]
-26.5 -28.4 84 -30 -30 1014.8 912.1
21 14.04 З 2 50 км 8/0
[Ci]
-27.1 -28.8 85 -34 -34 опасность
обморожения
1014.3 911.5
00 15.04 штиль 0 50 км 4/0
[Ci fib]
-11.6 -16.0 70 -12 -6 1006.7 910.2 -28.8 28
03 15.04 ЮЗ 1 50 км ясно -7.3 -14.9 55 -9 -0 1003.5 908.9
06 15.04 ЮВ 1 50 км 4/0
[Ci fib]
-6.0 -15.1 49 -8 -2 1002.5 908.4
09 15.04 В 3 50 км 4/0
[Ci fib]
-7.4 -15.7 51 -13 -12 1004.0 909.3
12 15.04 З 3 н/о н/о -15.8 -22.4 57 -23 -23 1009.1 911.0 -5.4
15 15.04 З 3 50 км ясно -22.7 -26.6 70 -31 -31 опасность
обморожения
1012.7 911.6
18 15.04 З 1 н/о н/о -27.0 -29.6 78 -31 -31 опасность
обморожения
1015.0 912.0
21 15.04 З 2 50 км ясно -26.2 -28.7 79 -33 -33 опасность
обморожения
1015.0 912.4
00 16.04 штиль 0 50 км 8/0
[Ac cast Cs]
-12.0 -22.9 40 -12 -8 1009.0 912.2 -27.0 28
03 16.04 штиль 0 50 км 8/0
[Cs]
-6.5 -19.8 34 -7 +2 1005.7 911.1
06 16.04 З 1 50 км 10/0
[Cs]
-5.5 -16.5 42 -7 -2 1005.0 910.8
09 16.04 СЗ 2 50 км 10/0
[Ac cast Cs]
-6.9 -15.8 49 -11 -10 1006.4 911.6
12 16.04 ЮЗ 3 50 км 5/0
[Ac cast Ci fib]
-14.1 -20.2 60 -21 -21 1010.9 913.2 -4.3
15 16.04 З 1 50 км 4/0
[Ci fib]
-21.5 -24.0 80 -25 -25 1014.3 913.5
18 16.04 СЗ 1 50 км 3/0
[Ci fib]
-25.9 -27.8 84 -30 -30 1016.1 913.5
21 16.04 ЮЗ 1 50 км 4/0
[Ci fib]
-24.2 -26.7 80 -28 -27 1015.6 913.7
00 17.04 СЗ 1 50 км 8/8 750 м
[Sc]
-14.6 -18.9 70 -17 -16 1011.0 913.2 -27.0 28
03 17.04 В 2 50 км 6/0
[Ac As]
-7.0 -15.0 53 -11 -6 1007.1 912.3
06 17.04 С 3 4000 м снег 8/8 630 м
[Sc Ac As]
-6.7 -12.3 64 -12 -11 1007.3 912.5
09 17.04 В 1 50 км {снег} 8/8 1000 м
[Sc Ac As]
-7.8 -12.8 67 -10 -10 1008.8 913.5
12 17.04 З 1 50 км {снег} 10/0 2000 м
[As trans]
-11.9 -15.5 75 -14 -14 1011.8 914.7 -5.2 0.0
15 17.04 СЗ 2 50 км 8/0 2000 м
[As trans Ci fib]
-15.8 -19.0 76 -21 -21 1014.0 915.4
18 17.04 З 2 50 км 8/0 2000 м
[As trans Ci fib]
-17.3 -21.2 72 -23 -23 1015.3 916.0
21 17.04 З 2 50 км 4/0
[Ci fib]
-18.7 -22.0 75 -24 -24 1017.6 917.6
00 18.04 ЮВ 1 50 км 3/0
[Ci fib]
-10.4 -20.4 44 -12 -12 1015.4 918.6 -18.8 28
03 18.04 С 3 50 км ясно -8.9 -16.2 55 -14 -8 1016.1 919.7
06 18.04 СВ 1 50 км ясно -6.9 -14.2 56 -9 -2 1015.8 920.1
09 18.04 З 2 50 км ясно -7.6 -14.2 59 -12 -11 1017.1 921.1
12 18.04 З 1 н/о н/о -17.1 -22.7 62 -20 -20 1022.7 922.8 -5.4
15 18.04 З 2 н/о н/о -23.3 -26.8 73 -30 -30 1026.6 923.9
18 18.04 З 2 50 км ясно -26.0 -29.1 75 -33 -33 опасность
обморожения
1028.5 924.6
21 18.04 З 2 н/о н/о -25.3 -29.2 70 -32 -32 опасность
обморожения
1028.5 924.8
00 19.04 штиль 0 50 км ясно -10.9 -21.9 40 -11 -5 1021.4 923.9 -27.9 28
03 19.04 В 2 50 км ясно -8.1 -16.8 50 -12 -4 1019.4 923.0
06 19.04 СВ 3 50 км 3/0
[Ci fib]
-4.8 -14.2 48 -10 -5 1016.1 921.1
09 19.04 Ю 3 50 км ясно -6.2 -14.3 53 -11 -10 1016.7 921.2
12 19.04 З 2 50 км ясно -15.4 -18.1 80 -20 -20 1020.5 921.5 -4.1
15 19.04 З 2 50 км ясно -21.0 -22.9 85 -27 -27 1023.6 922.1
18 19.04 З 2 50 км ясно -25.1 -26.9 85 -32 -32 опасность
обморожения
1025.5 922.2
21 19.04 З 1 50 км 8/0
[Cs]
-23.5 -25.7 82 -27 -26 1024.7 922.2
00 20.04 штиль 0 50 км 10/0 2000 м
[Ac As]
-12.1 -16.4 70 -12 -10 1019.1 921.3 -25.3 28
03 20.04 В 1 50 км 10/0 2000 м
[As op]
-7.5 -13.5 62 -10 -8 1015.6 919.8
06 20.04 В 3 50 км 10/0
[As op]
-6.5 -13.1 59 -12 -11 1013.3 918.0
09 20.04 СВ 3 50 км 10/0 2000 м
[As op]
-7.5 -12.9 65 -13 -13 1013.3 917.6
12 20.04 штиль 0 50 км 10/0 2000 м
[As trans]
-10.1 -14.3 71 -10 -10 1014.6 917.9 -6.0
15 20.04 З 1 50 км 10/10 1200 м
[Sc As trans]
-13.0 -15.7 80 -15 -15 1014.2 916.6
18 20.04 штиль 0 20 км слаб. снег 10/10 1000 м
[Sc Ac As]
-14.5 -16.8 83 -15 -15 1013.7 915.6
21 20.04 штиль 0 4000 м снег 10/10 420 м
[Sc]
-12.3 -14.3 85 -12 -12 1012.0 914.8
00 21.04 штиль 0 н/о н/о -5.6 -12.4 59 -6 -6 1008.2 913.7 -15.9
03 21.04 В 2 н/о н/о -4.6 -12.8 53 -8 -8 1006.3 912.3
06 21.04 З 1 н/о н/о -2.6 -10.7 54 -4 -4 1004.5 911.3

 

Местоположение метеостанции Себян-Кюель (Якутия, Россия): широта 65.30 долгота 130.00 высота над уровнем моря 777 м.

В архиве по умолчанию представлена погода в Себян-Кюеле за последнюю неделю. Архивные данные за месяц целиком и за предыдущие месяцы, начиная с января 2011 года, Вы можете получить, выбрав интересующий диапазон дат из раскрывающегося списка и нажав кнопку "Ввод!".


*Определитесь, кто Вы:
робот инопланетянин человек

Внимание! Время в таблицах - всемирное. Для получения местного времени необходимо прибавить поправку, которая равна 9 ч.

Смотрите также архив погоды в соседних городах и на ближайших метеорологических станциях:

Погода в Сеген-Кюеле (Якутия, Россия) (145 км)
Погода в Екюччю (Якутия, Россия) (179 км)
Погода в Сангаре (Якутия, Россия) (195 км)
Погода в Батамае (Якутия, Россия) (200 км)
Погода в Сого-Хае (Якутия, Россия) (205 км)
Погода в Верхоянском Перевозе (Якутия, Россия) (240 км)
Погода в Иэме (Якутия, Россия) (269 км)
Погода в Бестяхской Звероферме (Якутия, Россия) (274 км)
Погода в Батагай-Алыте (Якутия, Россия) (276 км)
Погода в Намцах (Якутия, Россия) (288 км)

Пояснения к столбцам:

Ветер - указаны скорость ветра в м/с - средняя за 10 мин, порывы в срок и между сроками (в фигурных скобках) и направление, откуда дует ветер: С - северный, СВ - северо-восточный, В - восточный, ЮВ - юго-восточный, Ю - южный, ЮЗ - юго-западный, З - западный, СЗ - северо-западный.
Видимость - горизонтальная дальность видимости в метрах или километрах. При видимости от 1 до 10 км при отсутствии осадков обычно наблюдается дымка, при ухудшении видимости до 1 км и менее - туман. В сухую погоду видимость может ухудшаться дымом, пылью или мглою.
Явления - указаны атмосферные явления, наблюдавшиеся в срок или в последний час перед сроком; фигурными скобками обозначены явления, наблюдавшиеся между сроками (за 1-3 часа до срока); квадратными скобками обозначены град или гололедные отложения с указанием их диаметра в мм.
Облачность - указаны через наклонную черту общая и нижняя облачность в баллах и высота нижней границы облаков в метрах; квадратными скобками обозначены формы облаков: Ci - перистые, Cs - перисто-слоистые, Cc - перисто-кучевые, Ac - высококучевые, As - высокослоистые, Sc - слоисто-кучевые, Ns - слоисто-дождевые, Cu - кучевые, Cb - кучево-дождевые. Подробнее классификацию облаков см. в Атласе облаков (PDF).
T - Температура воздуха - температура, измеренная на высоте 2 м над землей.
Td - Температура точки росы - температура, при понижении до которой содержащийся в воздухе водяной пар достигнет насыщения.
f - Относительная влажность воздуха - влажноcть воздуха, измеренная на высоте 2 м над землей.
Te - Эффективная температура - температура, которую ощущает одетый по сезону человек в тени. Характеристика душности погоды. При расчете учитывается влияние влажности воздуха и скорости ветра на теплоощущения человека.
Tes - Эффективная температура на солнце - температура, которую ощущает человек, с поправкой на солнечный нагрев. Характеристика знойности погоды. Зависит от высоты солнца над горизонтом, облачности и скорости ветра. Ночью, в пасмурную погоду, а также при ветре 12 м/с и более поправка равна нулю.
P - Атмосферное давление - приведенное к уровню моря атмосферное давление.
Po - Атмосферное давление - измеренное на уровне метеостанции атмосферное давление.
Tmin - Минимальная температура - минимум температуры воздуха на высоте 2 м над землей.
Tmax - Максимальная температура - максимум температуры воздуха на высоте 2 м над землей.
R - Количество осадков - Количество выпавших осадков за период времени, мм. При наведении курсора мыши на число - период времени, за который выпало указанное количество осадков.
R24 - Количество осадков - Количество выпавших осадков за 24 часа, мм.
S - Снежный покров - Высота снежного покрова, см. При наведении курсора мыши на число - состояние снежного покрова и степень покрытия местности в баллах.